This is the latest recevied weather packets stored in our database for station/object KO4LCK. If no packets are shown the sender has not sent any weather packets the latest 10 day(s).
| Time | Temp. | Humidity | Pressure | Rain* | Wind** | Luminosity | Snow |
|---|---|---|---|---|---|---|---|
| 1777656024 | 18.33° C | 57% | 1015.4 hPa | 0 mm | - | 261 W/m² | - |
| 1777655720 | 17.78° C | 58% | 1015.6 hPa | 0 mm | - | 231 W/m² | - |
| 1777655417 | 17.78° C | 59% | 1015.5 hPa | 0 mm | - | 203 W/m² | - |
| 1777655114 | 17.78° C | 57% | 1015.6 hPa | 0 mm | - | 203 W/m² | - |
| 1777654811 | 18.33° C | 57% | 1015.6 hPa | 0 mm | - | 218 W/m² | - |
| 1777654509 | 18.89° C | 54% | 1015.7 hPa | 0 mm | - | 253 W/m² | - |
| 1777654206 | 18.89° C | 58% | 1015.6 hPa | 0 mm | - | 371 W/m² | - |
| 1777653904 | 18.33° C | 58% | 1015.9 hPa | 0 mm | - | 418 W/m² | - |
| 1777653600 | 17.78° C | 57% | 1015.7 hPa | 0 mm | - | 500 W/m² | - |
| 1777653296 | 17.78° C | 60% | 1015.8 hPa | 0 mm | - | 319 W/m² | - |
| 1777652993 | 18.33° C | 59% | 1015.9 hPa | 0 mm | - | 293 W/m² | - |
| 1777652689 | 17.78° C | 62% | 1016.1 hPa | 0 mm | - | 294 W/m² | - |
| 1777652387 | 17.78° C | 61% | 1016 hPa | 0 mm | - | 269 W/m² | - |
| 1777652083 | 17.78° C | 60% | 1015.9 hPa | 0 mm | - | 255 W/m² | - |
| 1777651780 | 17.22° C | 63% | 1016.1 hPa | 0 mm | - | 263 W/m² | - |
| 1777651477 | 17.22° C | 62% | 1016.3 hPa | 0 mm | - | 241 W/m² | - |
| 1777651174 | 17.22° C | 64% | 1016.1 hPa | 0 mm | - | 210 W/m² | - |
| 1777650871 | 17.22° C | 62% | 1016 hPa | 0 mm | - | 227 W/m² | - |
| 1777650568 | 17.22° C | 62% | 1016 hPa | 0 mm | - | 269 W/m² | - |
| 1777650265 | 17.22° C | 64% | 1016 hPa | 0 mm | - | 325 W/m² | - |
| 1777649962 | 17.22° C | 63% | 1015.8 hPa | 0 mm | - | 273 W/m² | - |
| 1777649660 | 17.22° C | 64% | 1015.8 hPa | 0 mm | - | 251 W/m² | - |
| 1777649355 | 17.22° C | 64% | 1015.9 hPa | 0 mm | - | 229 W/m² | - |
| 1777649053 | 16.67° C | 66% | 1016 hPa | 0 mm | - | 220 W/m² | - |
| 1777648750 | 16.67° C | 64% | 1016 hPa | 0 mm | - | 222 W/m² | - |
* Rain latest hour (hover to see other rain measurements)
** Current wind speed in m/s (hover to see current wind gust speed)